Weather History for Fond du Lac, WI

Change the Weather History Date:

Friday, March 15, 2013

  Actual Average Record
Temperature  
Mean Temperature 30 °F -  
Max Temperature 34 °F 40 °F 68 °F (2012)
Min Temperature 26 °F 22 °F -5 °F (1956)
Degree Days  
Heating Degree Days 35    
Moisture  
Dew Point 26 °F    
Average Humidity 84    
Maximum Humidity 93    
Minimum Humidity 72    
Precipitation  
Precipitation 0.07 in - - ()
Sea Level Pressure  
Sea Level Pressure 29.91 in    
Wind  
Wind Speed 7 mph (NE)    
Max Wind Speed 15 mph    
Max Gust Speed 20 mph    
Visibility 4 miles    
Events Snow    
Averages and records for this station are not official NWS values.
T = Trace of Precipitation, MM = Missing Value Source: NWS Daily Summary

Daily Weather History Graph

Daily Weather History Graph

Search for Another Location

Airport:

Trip Planner

Search our weather history database for the weather conditions in past years. The results will help you decide how hot, cold, wet, or windy it might be!

Date:

Astronomy

Mar. 15, 2013 Rise Set
Actual Time 7:05 AM CDT 7:00 PM CDT
Civil Twilight 6:37 AM CDT 7:29 PM CDT
Nautical Twilight 6:03 AM CDT 8:02 PM CDT
Astronomical Twilight 5:29 AM CDT 8:36 PM CDT
Moon 8:47 AM CDT (3/15) 11:23 PM CDT (3/15)
Length of Visible Light 12h 52m
Length of Day
11h 54m
Waxing Crescent, 15% of the Moon is Illuminated
Mar 15
Waxing Crescent
Mar 19
First Quarter
Mar 27
Full
Apr 2
Last Quarter
Apr 10
New

Hourly Weather History & Observations

Time (CDT) Temp. Windchill Dew Point Humidity Pressure Visibility Wind Dir Wind Speed Gust Speed Precip Events Conditions
12:53 AM 27.0 °F 19.5 °F 24.1 °F 89% 30.05 in 7.0 mi SW 6.9 mph - N/A   Clear
1:53 AM 28.0 °F 21.7 °F 24.1 °F 85% 30.03 in 7.0 mi SW 5.8 mph - N/A   Clear
2:53 AM 28.0 °F 21.7 °F 24.1 °F 85% 30.01 in 7.0 mi SW 5.8 mph - N/A   Clear
3:53 AM 28.0 °F - 25.0 °F 88% 29.99 in 7.0 mi Calm Calm - N/A   Clear
4:53 AM 27.0 °F 23.0 °F 24.1 °F 89% 29.97 in 6.0 mi SSW 3.5 mph - N/A   Clear
5:53 AM 28.0 °F 24.2 °F 25.0 °F 88% 29.96 in 7.0 mi WSW 3.5 mph - N/A   Partly Cloudy
6:53 AM 28.9 °F - 25.0 °F 85% 29.95 in 6.0 mi Calm Calm - N/A   Mostly Cloudy
7:53 AM 28.9 °F 23.9 °F 25.0 °F 85% 29.96 in 5.0 mi WSW 4.6 mph - N/A   Overcast
8:53 AM 30.9 °F - 26.1 °F 82% 29.95 in 6.0 mi Calm Calm - N/A   Haze
9:19 AM 32.0 °F 27.5 °F 26.6 °F 80% 29.92 in 2.0 mi North 4.6 mph - 0.00 in Snow Light Snow
9:35 AM 32.0 °F 25.6 °F 26.6 °F 80% 29.92 in 2.5 mi North 6.9 mph - 0.00 in Snow Light Snow
9:51 AM 32.0 °F 25.6 °F 26.6 °F 80% 29.92 in 2.0 mi North 6.9 mph - 0.00 in Snow Light Snow
9:53 AM 32.0 °F 25.6 °F 27.0 °F 82% 29.96 in 2.0 mi North 6.9 mph - 0.00 in Snow Light Snow
10:05 AM 32.0 °F 26.4 °F 26.6 °F 80% 29.92 in 2.0 mi North 5.8 mph - 0.00 in Snow Light Snow
10:16 AM 30.2 °F 24.3 °F 26.6 °F 86% 29.92 in 1.5 mi North 5.8 mph - 0.00 in Snow Light Snow
10:45 AM 32.0 °F 26.4 °F 28.4 °F 87% 29.91 in 1.0 mi NNE 5.8 mph - 0.00 in Snow Light Snow
10:53 AM 32.0 °F 26.4 °F 28.0 °F 85% 29.94 in 1.0 mi NE 5.8 mph - 0.00 in Snow Light Snow
11:12 AM 32.0 °F 24.8 °F 26.6 °F 80% 29.91 in 1.8 mi NNE 8.1 mph - 0.00 in Snow Light Snow
11:17 AM 32.0 °F 24.8 °F 26.6 °F 80% 29.91 in 2.0 mi NNE 8.1 mph - 0.00 in Snow Light Snow
11:50 AM 32.0 °F 25.6 °F 28.4 °F 87% 29.91 in 2.0 mi NNE 6.9 mph - 0.00 in Snow Light Snow
11:53 AM 32.0 °F 26.4 °F 27.0 °F 82% 29.94 in 1.8 mi NNE 5.8 mph - 0.00 in Snow Light Snow
12:26 PM 32.0 °F 27.5 °F 28.4 °F 87% 29.91 in 1.5 mi North 4.6 mph - 0.00 in Snow Light Snow
12:34 PM 33.8 °F 30.8 °F 28.4 °F 81% 29.91 in 1.5 mi North 3.5 mph - 0.00 in Snow Light Snow
12:53 PM 33.1 °F 30.0 °F 28.9 °F 85% 29.95 in 1.5 mi North 3.5 mph - 0.00 in Snow Light Snow
1:03 PM 33.8 °F 30.8 °F 28.4 °F 81% 29.92 in 1.8 mi NNE 3.5 mph - 0.00 in Snow Light Snow
1:12 PM 33.8 °F 30.8 °F 28.4 °F 81% 29.92 in 1.5 mi NNE 3.5 mph - 0.00 in Snow Light Snow
1:53 PM 33.1 °F 27.7 °F 30.0 °F 89% 29.94 in 0.8 mi NNE 5.8 mph - 0.01 in Snow Light Snow
2:01 PM 33.8 °F 28.6 °F 30.2 °F 87% 29.91 in 1.0 mi NNE 5.8 mph - 0.00 in Snow Light Snow
2:15 PM 33.8 °F 28.6 °F 30.2 °F 87% 29.90 in 1.2 mi NNE 5.8 mph - 0.00 in Snow Light Snow
2:53 PM 33.1 °F 27.7 °F 30.0 °F 89% 29.93 in 0.8 mi NE 5.8 mph - 0.01 in Snow Light Snow
3:00 PM 33.8 °F 27.0 °F 30.2 °F 87% 29.89 in 1.0 mi NE 8.1 mph - 0.00 in Snow Light Snow
3:15 PM 33.8 °F 27.7 °F 30.2 °F 87% 29.89 in 1.2 mi NE 6.9 mph - 0.00 in Snow Light Snow
3:31 PM 33.8 °F 27.7 °F 30.2 °F 87% 29.88 in 1.8 mi East 6.9 mph - 0.00 in Snow Light Snow
3:36 PM 33.8 °F 25.8 °F 28.4 °F 81% 29.88 in 3.0 mi East 10.4 mph - 0.00 in Snow Light Snow
3:43 PM 33.8 °F 27.7 °F 28.4 °F 81% 29.88 in 6.0 mi East 6.9 mph - 0.00 in   Haze
3:51 PM 33.8 °F 27.0 °F 28.4 °F 81% 29.88 in 9.0 mi East 8.1 mph - 0.00 in   Overcast
3:53 PM 34.0 °F 24.6 °F 28.0 °F 79% 29.91 in 10.0 mi East 13.8 mph - 0.00 in   Overcast
4:31 PM 33.8 °F 24.3 °F 26.6 °F 75% 29.86 in 10.0 mi East 13.8 mph - N/A   Overcast
4:53 PM 33.1 °F 23.4 °F 25.0 °F 72% 29.90 in 10.0 mi East 13.8 mph - N/A   Overcast
5:17 PM 32.0 °F 22.1 °F 24.8 °F 75% 29.87 in 10.0 mi East 13.8 mph - N/A   Overcast
5:48 PM 30.2 °F 20.2 °F 26.6 °F 86% 29.87 in 1.8 mi East 12.7 mph - 0.00 in Snow Light Snow
5:53 PM 30.9 °F 24.3 °F 26.1 °F 82% 29.91 in 1.2 mi East 6.9 mph - 0.01 in Snow Light Snow
6:05 PM 30.2 °F 21.3 °F 26.6 °F 86% 29.87 in 2.0 mi East 10.4 mph - 0.00 in Snow Light Snow
6:15 PM 30.2 °F 21.3 °F 26.6 °F 86% 29.87 in 4.0 mi East 10.4 mph - 0.00 in Snow Light Snow
6:32 PM 30.2 °F 20.8 °F 24.8 °F 80% 29.87 in 9.0 mi East 11.5 mph - 0.00 in   Overcast
6:53 PM 30.0 °F 21.1 °F 25.0 °F 82% 29.91 in 10.0 mi East 10.4 mph - 0.00 in   Overcast
7:08 PM 30.2 °F 21.9 °F 24.8 °F 80% 29.87 in 10.0 mi East 9.2 mph - 0.00 in   Overcast
7:16 PM 30.2 °F 19.3 °F 23.0 °F 75% 29.88 in 10.0 mi East 15.0 mph 19.6 mph 0.00 in   Overcast
7:53 PM 30.0 °F 20.0 °F 21.9 °F 72% 29.91 in 10.0 mi East 12.7 mph - 0.00 in   Overcast
8:53 PM 28.9 °F 19.8 °F 21.9 °F 75% 29.91 in 9.0 mi East 10.4 mph - 0.00 in Snow Light Snow
9:13 PM 28.4 °F 19.1 °F 21.2 °F 74% 29.88 in 2.5 mi East 10.4 mph - 0.00 in Snow Light Snow
9:33 PM 28.4 °F 19.7 °F 23.0 °F 80% 29.89 in 1.5 mi ENE 9.2 mph - 0.00 in Snow Light Snow
9:53 PM 28.0 °F 20.0 °F 23.0 °F 81% 29.92 in 1.8 mi ENE 8.1 mph - 0.00 in Snow Light Snow
10:03 PM 26.6 °F 16.2 °F 24.8 °F 93% 29.89 in 1.2 mi ENE 11.5 mph - 0.01 in Snow Light Snow
10:11 PM 26.6 °F 16.8 °F 23.0 °F 86% 29.89 in 1.5 mi ENE 10.4 mph - 0.01 in Snow Light Snow
10:53 PM 27.0 °F 18.7 °F 24.1 °F 89% 29.90 in 1.0 mi ENE 8.1 mph - 0.02 in Snow Light Snow
11:05 PM 26.6 °F 18.2 °F 24.8 °F 93% 29.86 in 1.0 mi ENE 8.1 mph - 0.01 in Snow Light Snow
11:12 PM 26.6 °F 17.5 °F 24.8 °F 93% 29.86 in 0.8 mi ENE 9.2 mph - 0.01 in Snow Light Snow
11:18 PM 26.6 °F 18.2 °F 24.8 °F 93% 29.86 in 1.0 mi NE 8.1 mph - 0.02 in Snow Light Snow
11:34 PM 26.6 °F 15.7 °F 24.8 °F 93% 29.86 in 2.0 mi NE 12.7 mph - 0.02 in Snow Light Snow
11:37 PM 26.6 °F 15.7 °F 24.8 °F 93% 29.87 in 3.0 mi NE 12.7 mph - 0.02 in Snow Light Snow
11:53 PM 27.0 °F 15.2 °F 23.0 °F 85% 29.90 in 5.0 mi NE 15.0 mph - 0.02 in Snow Light Snow